Погода в Красном Октябре

Россия / Волгоградская область     49°04′47″N   45°18′31″E
темп.,
°C
ветер,
м/с
пор.,
м/с
влажн.,
%
обл.,
%
осадки,
мм/ч
давл.,
гПа
погр.,
м
28 ноября, вс
вс2800:00+2ююв61494100 0.0 1018366
03:00+3ююв71593100 0.0 1017366
06:00+3ююв61493100 0.0 1015320
09:00+4ююв71394100 0.1 1016360
12:00+6ю61290100 0.3 1015423
15:00+7ююв499141 0.3 1015329
18:00+6ю489475 0.3 1016138
21:00+5ююв479244 0.3 1016124
29 ноября, пн
пн2900:00+5ююв499290 0.0 1016148
03:00+5ююв51195100 0.0 1016220
06:00+5ююв51196100 0.0 1016261
09:00+6ююв71395100 0.1 1016305
12:00+8ююв91592100 0.0 1014478
15:00+9ююв81586100 0.0 1013486
18:00+8ююв71490100 0.0 1012369
21:00+8ююв91787100 0.3 1010451
30 ноября, вт
вт3000:00+8ююв81791100 0.5 1006406
03:00+8ююв91884100 0.8 1004492
06:00+9ю91687100 0.6 1003525
09:00+9ююз91993100 3.6 1002739
12:00+12юз91685100 0.2 1001922
15:00+11зюз71170100 0.2 1002463
18:00+8юз41081100 0.0 1003205
21:00+6ююз348462 0.0 100149
1 декабря, ср
ср100:00+6ююв3480100 0.0 99855
03:00+6юв3896100 3.2 995253
06:00+9ю101891100 1.7 992883
09:00+9юз9156960 1.8 990930
12:00+3зсз13177777 0.1 9961004
15:00+3з915675 0.1 10011126
18:00+1з7127323 0.0 1004885
21:00+1зюз61172100 0.0 1005517
2 декабря, чт
чт200:000юз61087100 0.1 1006401
03:00+1зюз41098100 1.4 1006529
06:00+2з81171100 0.0 10081003
09:00+2зюз61183100 0.1 1011730
12:00+3з89726 0.1 1013934
15:00+3зюз69725 0.1 1014858
18:00+2юз410775 0.0 1015380
21:00+2ююз6138312 0.0 1016350